Radiation Dose measured at exhaust stack monitor of Fukushima Daiichi Nuclear Power Station
Date,Time,Unit 5 6 shared exhaust cylinders,Wind Direction,Wind Velocity(m/s)
2024/07/06,00:00,3.6,south,4.9
2024/07/06,00:10,3.6,south,3.1
2024/07/06,00:20,3.6,south,2.6
2024/07/06,00:30,3.5,south-southeast,3.0
2024/07/06,00:40,3.5,south,3.8
2024/07/06,00:50,3.6,south,3.8
2024/07/06,01:00,3.5,south-southwest,2.5
2024/07/06,01:10,3.5,south,2.3
2024/07/06,01:20,3.6,south-southwest,2.2
2024/07/06,01:30,3.6,south-southwest,1.5
2024/07/06,01:40,3.7,south,2.5
2024/07/06,01:50,3.8,south,2.3
2024/07/06,02:00,3.5,south,2.6
2024/07/06,02:10,3.6,south-southwest,1.7
2024/07/06,02:20,3.5,southwest,1.2
2024/07/06,02:30,3.7,-,CALM
2024/07/06,02:40,3.6,southwest,0.6
2024/07/06,02:50,3.5,-,CALM
2024/07/06,03:00,3.6,north-northeast,0.9
2024/07/06,03:10,3.6,east-southeast,0.8
2024/07/06,03:20,3.7,southeast,0.6
2024/07/06,03:30,3.6,-,CALM
2024/07/06,03:40,3.6,northeast,0.6
2024/07/06,03:50,3.6,north,1.2
2024/07/06,04:00,3.5,north-northwest,0.9
2024/07/06,04:10,3.5,northwest,1.7
2024/07/06,04:20,3.6,northwest,1.4
2024/07/06,04:30,3.6,north-northwest,2.0
2024/07/06,04:40,3.6,north-northwest,1.5
2024/07/06,04:50,3.6,north,2.0
2024/07/06,05:00,3.5,north,2.0
2024/07/06,05:10,3.6,northwest,1.9
2024/07/06,05:20,3.4,north-northwest,1.5
2024/07/06,05:30,3.5,north-northwest,1.9
2024/07/06,05:40,3.5,north-northwest,2.0
2024/07/06,05:50,3.5,northwest,2.0
2024/07/06,06:00,3.6,northwest,3.2
2024/07/06,06:10,3.6,north-northwest,3.5
2024/07/06,06:20,3.5,north-northwest,3.2
2024/07/06,06:30,3.6,north,2.9
2024/07/06,06:40,3.6,north,2.9
2024/07/06,06:50,3.6,north-northwest,1.5
2024/07/06,07:00,3.5,north,2.0
2024/07/06,07:10,3.6,north,2.5
2024/07/06,07:20,3.5,north-northeast,2.5
2024/07/06,07:30,3.6,north,2.3
2024/07/06,07:40,3.5,northeast,1.9
2024/07/06,07:50,3.7,north-northeast,2.0
2024/07/06,08:00,3.7,northeast,1.4
2024/07/06,08:10,3.6,north-northeast,1.2
2024/07/06,08:20,3.7,north,1.5
2024/07/06,08:30,3.6,north,1.7
2024/07/06,08:40,3.5,-,CALM
2024/07/06,08:50,3.8,northeast,0.8
2024/07/06,09:00,3.6,east-northeast,1.5
2024/07/06,09:10,3.5,east,1.7
2024/07/06,09:20,3.6,east,2.3
2024/07/06,09:30,3.6,east-southeast,2.9
2024/07/06,09:40,3.6,east,2.9
2024/07/06,09:50,3.6,east-southeast,3.4
2024/07/06,10:00,3.7,east-southeast,3.8
2024/07/06,10:10,3.7,east-southeast,4.0
2024/07/06,10:20,3.5,east-southeast,4.5
2024/07/06,10:30,3.6,southeast,5.1
2024/07/06,10:40,3.7,southeast,4.4
2024/07/06,10:50,3.7,southeast,4.2
2024/07/06,11:00,3.6,southeast,4.2
2024/07/06,11:10,3.7,southeast,3.5
2024/07/06,11:20,3.7,southeast,3.9
2024/07/06,11:30,3.6,southeast,4.1
2024/07/06,11:40,3.5,southeast,4.1
2024/07/06,11:50,3.7,southeast,2.0
2024/07/06,12:00,3.7,east,2.3
2024/07/06,12:10,3.6,southeast,2.9
2024/07/06,12:20,3.7,southeast,2.3
2024/07/06,12:30,3.6,southeast,2.5
2024/07/06,12:40,3.5,southeast,3.3
2024/07/06,12:50,3.5,south-southeast,3.8
2024/07/06,13:00,3.7,south-southeast,3.4
2024/07/06,13:10,3.5,south-southeast,4.6
2024/07/06,13:20,3.5,south-southeast,5.0
2024/07/06,13:30,3.5,south-southeast,4.8
2024/07/06,13:40,3.6,south-southeast,3.6
2024/07/06,13:50,3.6,southeast,3.6
2024/07/06,14:00,3.6,southeast,4.4
2024/07/06,14:10,3.6,south-southeast,4.3
2024/07/06,14:20,3.6,south,3.8
2024/07/06,14:30,3.7,south-southeast,3.9
2024/07/06,14:40,3.6,south-southeast,3.9
2024/07/06,14:50,3.5,south-southeast,5.2
2024/07/06,15:00,3.7,south-southeast,4.0
2024/07/06,15:10,3.7,south-southeast,4.5
2024/07/06,15:20,3.7,south,4.7
2024/07/06,15:30,3.6,south,5.8
2024/07/06,15:40,3.6,south,4.7
2024/07/06,15:50,3.6,south,5.2
2024/07/06,16:00,3.7,south,4.6
2024/07/06,16:10,3.7,south-southwest,2.8
2024/07/06,16:20,3.7,southwest,2.3
2024/07/06,16:30,3.6,south,3.4
2024/07/06,16:40,3.5,south,2.6
2024/07/06,16:50,3.7,south-southwest,1.2
2024/07/06,17:00,3.7,southwest,2.5
2024/07/06,17:10,3.6,west-southwest,3.1
2024/07/06,17:20,3.6,west-southwest,3.2
2024/07/06,17:30,3.6,west,3.3
2024/07/06,17:40,3.6,west-southwest,3.1
2024/07/06,17:50,3.6,southwest,0.9
2024/07/06,18:00,3.6,southwest,1.9
2024/07/06,18:10,3.7,west-southwest,2.3
2024/07/06,18:20,3.4,west,1.9
2024/07/06,18:30,3.6,west-northwest,2.3
2024/07/06,18:40,3.6,west-northwest,1.7
2024/07/06,18:50,3.7,west-northwest,1.7
2024/07/06,19:00,3.4,west,1.5
2024/07/06,19:10,3.6,southwest,1.5
2024/07/06,19:20,3.5,southwest,1.7
2024/07/06,19:30,3.6,southwest,0.9
2024/07/06,19:40,3.6,west-southwest,1.7
2024/07/06,19:50,3.6,west,4.2
2024/07/06,20:00,3.6,west,5.0
2024/07/06,20:10,3.7,west,4.9
2024/07/06,20:20,3.6,west,4.6
2024/07/06,20:30,3.6,west-southwest,4.5
2024/07/06,20:40,3.5,west-southwest,4.3
2024/07/06,20:50,3.5,west-southwest,3.5
2024/07/06,21:00,3.6,west-southwest,2.6
2024/07/06,21:10,3.5,southeast,3.4
2024/07/06,21:20,3.4,south-southeast,5.8
2024/07/06,21:30,3.6,south-southeast,5.2
2024/07/06,21:40,3.6,south,4.6
2024/07/06,21:50,3.6,south,5.1
2024/07/06,22:00,3.7,south-southwest,4.6
2024/07/06,22:10,3.6,southwest,4.1
2024/07/06,22:20,3.6,south-southwest,4.2
2024/07/06,22:30,3.4,southwest,4.2
2024/07/06,22:40,3.5,southwest,2.9
2024/07/06,22:50,3.5,southwest,4.8
2024/07/06,23:00,3.6,southwest,5.4
2024/07/06,23:10,3.7,west-southwest,5.3
2024/07/06,23:20,3.6,west-southwest,3.5
2024/07/06,23:30,3.8,west-southwest,2.8
2024/07/06,23:40,3.7,west-southwest,2.5
2024/07/06,23:50,3.5,west,2.0
